owner,sensor,date,latitude,longitude,vertical_datum,sea_water_practical_salinity,qcFlag 
LUMCON,ioos:station:LUMCON:104:1,2011-05-01T01:00:00Z,29.5526,-90.8070,-9999.0,0.17,1111122 
LUMCON,ioos:station:LUMCON:104:1,2011-05-01T02:00:00Z,29.5526,-90.8070,-9999.0,0.173,1111122 
LUMCON,ioos:station:LUMCON:104:1,2011-05-01T03:00:00Z,29.5526,-90.8070,-9999.0,0.18,1111122 
LUMCON,ioos:station:LUMCON:104:1,2011-05-01T04:00:00Z,29.5526,-90.8070,-9999.0,0.171,1111122 
LUMCON,ioos:station:LUMCON:104:1,2011-05-01T05:00:00Z,29.5526,-90.8070,-9999.0,0.18,1111122 
LUMCON,ioos:station:LUMCON:104:1,2011-05-01T06:00:00Z,29.5526,-90.8070,-9999.0,0.173,1111122 
LUMCON,ioos:station:LUMCON:104:1,2011-05-01T07:00:00Z,29.5526,-90.8070,-9999.0,0.17,1111122 
LUMCON,ioos:station:LUMCON:104:1,2011-05-01T08:00:00Z,29.5526,-90.8070,-9999.0,0.17,1111122 
LUMCON,ioos:station:LUMCON:104:1,2011-05-01T09:00:00Z,29.5526,-90.8070,-9999.0,0.17,1111122 
LUMCON,ioos:station:LUMCON:104:1,2011-05-01T10:00:00Z,29.5526,-90.8070,-9999.0,0.17,1111122 
LUMCON,ioos:station:LUMCON:104:1,2011-05-01T11:00:00Z,29.5526,-90.8070,-9999.0,0.17,1111122 
LUMCON,ioos:station:LUMCON:104:1,2011-05-01T12:00:00Z,29.5526,-90.8070,-9999.0,0.175,1111122 
LUMCON,ioos:station:LUMCON:104:1,2011-05-01T13:00:00Z,29.5526,-90.8070,-9999.0,0.18,1111122 
LUMCON,ioos:station:LUMCON:104:1,2011-05-01T14:00:00Z,29.5526,-90.8070,-9999.0,0.18,1111122 
LUMCON,ioos:station:LUMCON:104:1,2011-05-01T15:00:00Z,29.5526,-90.8070,-9999.0,0.172,1111122 
LUMCON,ioos:station:LUMCON:104:1,2011-05-01T16:00:00Z,29.5526,-90.8070,-9999.0,0.17,1111122 
LUMCON,ioos:station:LUMCON:104:1,2011-05-01T17:00:00Z,29.5526,-90.8070,-9999.0,0.175,1111122 
LUMCON,ioos:station:LUMCON:104:1,2011-05-01T18:00:00Z,29.5526,-90.8070,-9999.0,0.174,1111122 
LUMCON,ioos:station:LUMCON:104:1,2011-05-01T19:00:00Z,29.5526,-90.8070,-9999.0,0.175,1111122 
LUMCON,ioos:station:LUMCON:104:1,2011-05-01T20:00:00Z,29.5526,-90.8070,-9999.0,0.172,1111122 
LUMCON,ioos:station:LUMCON:104:1,2011-05-01T21:00:00Z,29.5526,-90.8070,-9999.0,0.17,1111122 
LUMCON,ioos:station:LUMCON:104:1,2011-05-01T22:00:00Z,29.5526,-90.8070,-9999.0,0.17,1111122 
LUMCON,ioos:station:LUMCON:104:1,2011-05-01T23:00:00Z,29.5526,-90.8070,-9999.0,0.17,1111122 
LUMCON,ioos:station:LUMCON:104:1,2011-05-02T01:00:00Z,29.5526,-90.8070,-9999.0,0.17,1111122 
LUMCON,ioos:station:LUMCON:104:1,2011-05-02T02:00:00Z,29.5526,-90.8070,-9999.0,0.17,1111122 
LUMCON,ioos:station:LUMCON:104:1,2011-05-02T03:00:00Z,29.5526,-90.8070,-9999.0,0.17,1111122 
LUMCON,ioos:station:LUMCON:104:1,2011-05-02T04:00:00Z,29.5526,-90.8070,-9999.0,0.17,1111122 
LUMCON,ioos:station:LUMCON:104:1,2011-05-02T05:00:00Z,29.5526,-90.8070,-9999.0,0.17,1111122 
LUMCON,ioos:station:LUMCON:104:1,2011-05-02T06:00:00Z,29.5526,-90.8070,-9999.0,0.17,1111122 
LUMCON,ioos:station:LUMCON:104:1,2011-05-02T07:00:00Z,29.5526,-90.8070,-9999.0,0.17,1111122 
LUMCON,ioos:station:LUMCON:104:1,2011-05-02T08:00:00Z,29.5526,-90.8070,-9999.0,0.17,1111122 
LUMCON,ioos:station:LUMCON:104:1,2011-05-02T09:00:00Z,29.5526,-90.8070,-9999.0,0.17,1111122 
LUMCON,ioos:station:LUMCON:104:1,2011-05-02T10:00:00Z,29.5526,-90.8070,-9999.0,0.17,1111122 
LUMCON,ioos:station:LUMCON:104:1,2011-05-02T11:00:00Z,29.5526,-90.8070,-9999.0,0.17,1111122 
LUMCON,ioos:station:LUMCON:104:1,2011-05-02T12:00:00Z,29.5526,-90.8070,-9999.0,0.17,1111122 
LUMCON,ioos:station:LUMCON:104:1,2011-05-02T13:00:00Z,29.5526,-90.8070,-9999.0,0.17,1111122 
LUMCON,ioos:station:LUMCON:104:1,2011-05-02T14:00:00Z,29.5526,-90.8070,-9999.0,0.17,1111122 
LUMCON,ioos:station:LUMCON:104:1,2011-05-02T15:00:00Z,29.5526,-90.8070,-9999.0,0.17,1111122 
LUMCON,ioos:station:LUMCON:104:1,2011-05-02T16:00:00Z,29.5526,-90.8070,-9999.0,0.17,1111122 
LUMCON,ioos:station:LUMCON:104:1,2011-05-02T17:00:00Z,29.5526,-90.8070,-9999.0,0.17,1111122 
LUMCON,ioos:station:LUMCON:104:1,2011-05-02T18:00:00Z,29.5526,-90.8070,-9999.0,0.17,1111122 
LUMCON,ioos:station:LUMCON:104:1,2011-05-02T19:00:00Z,29.5526,-90.8070,-9999.0,0.17,1111122 
LUMCON,ioos:station:LUMCON:104:1,2011-05-02T20:00:00Z,29.5526,-90.8070,-9999.0,0.17,1111122 
LUMCON,ioos:station:LUMCON:104:1,2011-05-02T21:00:00Z,29.5526,-90.8070,-9999.0,0.17,1111122 
LUMCON,ioos:station:LUMCON:104:1,2011-05-02T22:00:00Z,29.5526,-90.8070,-9999.0,0.17,1111122 
LUMCON,ioos:station:LUMCON:104:1,2011-05-02T23:00:00Z,29.5526,-90.8070,-9999.0,0.17,1111122 
LUMCON,ioos:station:LUMCON:104:1,2011-05-03T01:00:00Z,29.5526,-90.8070,-9999.0,0.17,1111122 
LUMCON,ioos:station:LUMCON:104:1,2011-05-03T02:00:00Z,29.5526,-90.8070,-9999.0,0.17,1111122 
LUMCON,ioos:station:LUMCON:104:1,2011-05-03T03:00:00Z,29.5526,-90.8070,-9999.0,0.17,1111122 
LUMCON,ioos:station:LUMCON:104:1,2011-05-03T04:00:00Z,29.5526,-90.8070,-9999.0,0.17,1111122 
LUMCON,ioos:station:LUMCON:104:1,2011-05-03T05:00:00Z,29.5526,-90.8070,-9999.0,0.17,1111122 
LUMCON,ioos:station:LUMCON:104:1,2011-05-03T06:00:00Z,29.5526,-90.8070,-9999.0,0.17,1111122 
LUMCON,ioos:station:LUMCON:104:1,2011-05-03T07:00:00Z,29.5526,-90.8070,-9999.0,0.17,1111122 
LUMCON,ioos:station:LUMCON:104:1,2011-05-03T08:00:00Z,29.5526,-90.8070,-9999.0,0.17,1111122 
LUMCON,ioos:station:LUMCON:104:1,2011-05-03T09:00:00Z,29.5526,-90.8070,-9999.0,0.17,1111122 
LUMCON,ioos:station:LUMCON:104:1,2011-05-03T10:00:00Z,29.5526,-90.8070,-9999.0,0.17,1111122 
LUMCON,ioos:station:LUMCON:104:1,2011-05-03T11:00:00Z,29.5526,-90.8070,-9999.0,0.17,1111122 
LUMCON,ioos:station:LUMCON:104:1,2011-05-03T12:00:00Z,29.5526,-90.8070,-9999.0,0.17,1111122 
LUMCON,ioos:station:LUMCON:104:1,2011-05-03T13:00:00Z,29.5526,-90.8070,-9999.0,0.17,1111122 
LUMCON,ioos:station:LUMCON:104:1,2011-05-03T14:00:00Z,29.5526,-90.8070,-9999.0,0.17,1111122 
LUMCON,ioos:station:LUMCON:104:1,2011-05-03T15:00:00Z,29.5526,-90.8070,-9999.0,0.17,1111122 
LUMCON,ioos:station:LUMCON:104:1,2011-05-03T16:00:00Z,29.5526,-90.8070,-9999.0,0.17,1111122 
LUMCON,ioos:station:LUMCON:104:1,2011-05-03T17:00:00Z,29.5526,-90.8070,-9999.0,0.17,1111122 
LUMCON,ioos:station:LUMCON:104:1,2011-05-03T18:00:00Z,29.5526,-90.8070,-9999.0,0.17,1111122 
LUMCON,ioos:station:LUMCON:104:1,2011-05-03T19:00:00Z,29.5526,-90.8070,-9999.0,0.17,1111122 
LUMCON,ioos:station:LUMCON:104:1,2011-05-03T20:00:00Z,29.5526,-90.8070,-9999.0,0.17,1111122 
LUMCON,ioos:station:LUMCON:104:1,2011-05-03T21:00:00Z,29.5526,-90.8070,-9999.0,0.17,1111122 
LUMCON,ioos:station:LUMCON:104:1,2011-05-03T22:00:00Z,29.5526,-90.8070,-9999.0,0.17,1111122 
LUMCON,ioos:station:LUMCON:104:1,2011-05-03T23:00:00Z,29.5526,-90.8070,-9999.0,0.17,1111122 
LUMCON,ioos:station:LUMCON:104:1,2011-05-04T01:00:00Z,29.5526,-90.8070,-9999.0,0.17,1111122 
LUMCON,ioos:station:LUMCON:104:1,2011-05-04T02:00:00Z,29.5526,-90.8070,-9999.0,0.17,1111122 
LUMCON,ioos:station:LUMCON:104:1,2011-05-04T03:00:00Z,29.5526,-90.8070,-9999.0,0.17,1111122 
LUMCON,ioos:station:LUMCON:104:1,2011-05-04T04:00:00Z,29.5526,-90.8070,-9999.0,0.17,1111122 
LUMCON,ioos:station:LUMCON:104:1,2011-05-04T05:00:00Z,29.5526,-90.8070,-9999.0,0.17,1111122 
LUMCON,ioos:station:LUMCON:104:1,2011-05-04T06:00:00Z,29.5526,-90.8070,-9999.0,0.17,1111122 
LUMCON,ioos:station:LUMCON:104:1,2011-05-04T07:00:00Z,29.5526,-90.8070,-9999.0,0.17,1111122 
LUMCON,ioos:station:LUMCON:104:1,2011-05-04T08:00:00Z,29.5526,-90.8070,-9999.0,0.17,1111122 
LUMCON,ioos:station:LUMCON:104:1,2011-05-04T09:00:00Z,29.5526,-90.8070,-9999.0,0.17,1111122 
LUMCON,ioos:station:LUMCON:104:1,2011-05-04T10:00:00Z,29.5526,-90.8070,-9999.0,0.17,1111122 
LUMCON,ioos:station:LUMCON:104:1,2011-05-04T11:00:00Z,29.5526,-90.8070,-9999.0,0.17,1111122 
LUMCON,ioos:station:LUMCON:104:1,2011-05-04T12:00:00Z,29.5526,-90.8070,-9999.0,0.17,1111122 
LUMCON,ioos:station:LUMCON:104:1,2011-05-04T13:00:00Z,29.5526,-90.8070,-9999.0,0.17,1111122 
LUMCON,ioos:station:LUMCON:104:1,2011-05-04T14:00:00Z,29.5526,-90.8070,-9999.0,0.17,1111122 
LUMCON,ioos:station:LUMCON:104:1,2011-05-04T15:00:00Z,29.5526,-90.8070,-9999.0,0.17,1111122 
LUMCON,ioos:station:LUMCON:104:1,2011-05-04T16:00:00Z,29.5526,-90.8070,-9999.0,0.17,1111122 
LUMCON,ioos:station:LUMCON:104:1,2011-05-04T17:00:00Z,29.5526,-90.8070,-9999.0,0.17,1111122 
LUMCON,ioos:station:LUMCON:104:1,2011-05-04T18:00:00Z,29.5526,-90.8070,-9999.0,0.17,1111122 
LUMCON,ioos:station:LUMCON:104:1,2011-05-04T19:00:00Z,29.5526,-90.8070,-9999.0,0.17,1111122 
LUMCON,ioos:station:LUMCON:104:1,2011-05-04T20:00:00Z,29.5526,-90.8070,-9999.0,0.17,1111122 
LUMCON,ioos:station:LUMCON:104:1,2011-05-04T21:00:00Z,29.5526,-90.8070,-9999.0,0.17,1111122 
LUMCON,ioos:station:LUMCON:104:1,2011-05-04T22:00:00Z,29.5526,-90.8070,-9999.0,0.17,1111122 
LUMCON,ioos:station:LUMCON:104:1,2011-05-04T23:00:00Z,29.5526,-90.8070,-9999.0,0.17,1111122 
LUMCON,ioos:station:LUMCON:104:1,2011-05-05T01:00:00Z,29.5526,-90.8070,-9999.0,0.17,1111122 
LUMCON,ioos:station:LUMCON:104:1,2011-05-05T02:00:00Z,29.5526,-90.8070,-9999.0,0.17,1111122 
LUMCON,ioos:station:LUMCON:104:1,2011-05-05T03:00:00Z,29.5526,-90.8070,-9999.0,0.17,1111122 
LUMCON,ioos:station:LUMCON:104:1,2011-05-05T04:00:00Z,29.5526,-90.8070,-9999.0,0.17,1111122 
LUMCON,ioos:station:LUMCON:104:1,2011-05-05T05:00:00Z,29.5526,-90.8070,-9999.0,0.17,1111122 
LUMCON,ioos:station:LUMCON:104:1,2011-05-05T06:00:00Z,29.5526,-90.8070,-9999.0,0.17,1111122 
LUMCON,ioos:station:LUMCON:104:1,2011-05-05T07:00:00Z,29.5526,-90.8070,-9999.0,0.17,1111122 
LUMCON,ioos:station:LUMCON:104:1,2011-05-05T08:00:00Z,29.5526,-90.8070,-9999.0,0.169,1111122 
LUMCON,ioos:station:LUMCON:104:1,2011-05-05T09:00:00Z,29.5526,-90.8070,-9999.0,0.16,1111122 
LUMCON,ioos:station:LUMCON:104:1,2011-05-05T10:00:00Z,29.5526,-90.8070,-9999.0,0.16,1111122 
LUMCON,ioos:station:LUMCON:104:1,2011-05-05T11:00:00Z,29.5526,-90.8070,-9999.0,0.16,1111122 
LUMCON,ioos:station:LUMCON:104:1,2011-05-05T12:00:00Z,29.5526,-90.8070,-9999.0,0.16,1111122 
LUMCON,ioos:station:LUMCON:104:1,2011-05-05T13:00:00Z,29.5526,-90.8070,-9999.0,0.16,1111122 
LUMCON,ioos:station:LUMCON:104:1,2011-05-05T14:00:00Z,29.5526,-90.8070,-9999.0,0.16,1111122 
LUMCON,ioos:station:LUMCON:104:1,2011-05-05T15:00:00Z,29.5526,-90.8070,-9999.0,0.16,1111122 
LUMCON,ioos:station:LUMCON:104:1,2011-05-05T16:00:00Z,29.5526,-90.8070,-9999.0,0.16,1111122 
LUMCON,ioos:station:LUMCON:104:1,2011-05-05T17:00:00Z,29.5526,-90.8070,-9999.0,0.16,1111122 
LUMCON,ioos:station:LUMCON:104:1,2011-05-05T18:00:00Z,29.5526,-90.8070,-9999.0,0.16,1111122 
LUMCON,ioos:station:LUMCON:104:1,2011-05-05T19:00:00Z,29.5526,-90.8070,-9999.0,0.16,1111122 
LUMCON,ioos:station:LUMCON:104:1,2011-05-05T20:00:00Z,29.5526,-90.8070,-9999.0,0.16,1111122 
LUMCON,ioos:station:LUMCON:104:1,2011-05-05T21:00:00Z,29.5526,-90.8070,-9999.0,0.16,1111122 
LUMCON,ioos:station:LUMCON:104:1,2011-05-05T22:00:00Z,29.5526,-90.8070,-9999.0,0.16,1111122 
LUMCON,ioos:station:LUMCON:104:1,2011-05-05T23:00:00Z,29.5526,-90.8070,-9999.0,0.16,1111122 
LUMCON,ioos:station:LUMCON:104:1,2011-05-06T01:00:00Z,29.5526,-90.8070,-9999.0,0.16,1111122 
LUMCON,ioos:station:LUMCON:104:1,2011-05-06T02:00:00Z,29.5526,-90.8070,-9999.0,0.16,1111122 
LUMCON,ioos:station:LUMCON:104:1,2011-05-06T03:00:00Z,29.5526,-90.8070,-9999.0,0.16,1111122 
LUMCON,ioos:station:LUMCON:104:1,2011-05-06T04:00:00Z,29.5526,-90.8070,-9999.0,0.16,1111122 
LUMCON,ioos:station:LUMCON:104:1,2011-05-06T05:00:00Z,29.5526,-90.8070,-9999.0,0.16,1111122 
LUMCON,ioos:station:LUMCON:104:1,2011-05-06T06:00:00Z,29.5526,-90.8070,-9999.0,0.16,1111122 
LUMCON,ioos:station:LUMCON:104:1,2011-05-06T07:00:00Z,29.5526,-90.8070,-9999.0,0.16,1111122 
LUMCON,ioos:station:LUMCON:104:1,2011-05-06T08:00:00Z,29.5526,-90.8070,-9999.0,0.16,1111122 
LUMCON,ioos:station:LUMCON:104:1,2011-05-06T09:00:00Z,29.5526,-90.8070,-9999.0,0.16,1111122 
LUMCON,ioos:station:LUMCON:104:1,2011-05-06T10:00:00Z,29.5526,-90.8070,-9999.0,0.16,1111122 
LUMCON,ioos:station:LUMCON:104:1,2011-05-06T11:00:00Z,29.5526,-90.8070,-9999.0,0.16,1111122 
LUMCON,ioos:station:LUMCON:104:1,2011-05-06T12:00:00Z,29.5526,-90.8070,-9999.0,0.16,1111122 
LUMCON,ioos:station:LUMCON:104:1,2011-05-06T13:00:00Z,29.5526,-90.8070,-9999.0,0.16,1111122 
LUMCON,ioos:station:LUMCON:104:1,2011-05-06T14:00:00Z,29.5526,-90.8070,-9999.0,0.16,1111122 
LUMCON,ioos:station:LUMCON:104:1,2011-05-06T15:00:00Z,29.5526,-90.8070,-9999.0,0.16,1111122 
LUMCON,ioos:station:LUMCON:104:1,2011-05-06T16:00:00Z,29.5526,-90.8070,-9999.0,0.16,1111122 
LUMCON,ioos:station:LUMCON:104:1,2011-05-06T17:00:00Z,29.5526,-90.8070,-9999.0,0.16,1111122 
LUMCON,ioos:station:LUMCON:104:1,2011-05-06T18:00:00Z,29.5526,-90.8070,-9999.0,0.16,1111122 
LUMCON,ioos:station:LUMCON:104:1,2011-05-06T19:00:00Z,29.5526,-90.8070,-9999.0,0.16,1111122 
LUMCON,ioos:station:LUMCON:104:1,2011-05-06T20:00:00Z,29.5526,-90.8070,-9999.0,0.16,1111122 
LUMCON,ioos:station:LUMCON:104:1,2011-05-06T21:00:00Z,29.5526,-90.8070,-9999.0,0.16,1111122 
LUMCON,ioos:station:LUMCON:104:1,2011-05-06T22:00:00Z,29.5526,-90.8070,-9999.0,0.16,1111122 
LUMCON,ioos:station:LUMCON:104:1,2011-05-06T23:00:00Z,29.5526,-90.8070,-9999.0,0.159,1111122 
LUMCON,ioos:station:LUMCON:104:1,2011-05-07T01:00:00Z,29.5526,-90.8070,-9999.0,0.15,1111122 
LUMCON,ioos:station:LUMCON:104:1,2011-05-07T02:00:00Z,29.5526,-90.8070,-9999.0,0.15,1111122 
LUMCON,ioos:station:LUMCON:104:1,2011-05-07T03:00:00Z,29.5526,-90.8070,-9999.0,0.15,1111122 
LUMCON,ioos:station:LUMCON:104:1,2011-05-07T04:00:00Z,29.5526,-90.8070,-9999.0,0.15,1111122 
LUMCON,ioos:station:LUMCON:104:1,2011-05-07T05:00:00Z,29.5526,-90.8070,-9999.0,0.15,1111122 
LUMCON,ioos:station:LUMCON:104:1,2011-05-07T06:00:00Z,29.5526,-90.8070,-9999.0,0.15,1111122 
LUMCON,ioos:station:LUMCON:104:1,2011-05-07T07:00:00Z,29.5526,-90.8070,-9999.0,0.15,1111122 
LUMCON,ioos:station:LUMCON:104:1,2011-05-07T08:00:00Z,29.5526,-90.8070,-9999.0,0.15,1111122 
LUMCON,ioos:station:LUMCON:104:1,2011-05-07T09:00:00Z,29.5526,-90.8070,-9999.0,0.15,1111122 
LUMCON,ioos:station:LUMCON:104:1,2011-05-07T10:00:00Z,29.5526,-90.8070,-9999.0,0.15,1111122 
LUMCON,ioos:station:LUMCON:104:1,2011-05-07T11:00:00Z,29.5526,-90.8070,-9999.0,0.15,1111122 
LUMCON,ioos:station:LUMCON:104:1,2011-05-07T12:00:00Z,29.5526,-90.8070,-9999.0,0.15,1111122 
LUMCON,ioos:station:LUMCON:104:1,2011-05-07T13:00:00Z,29.5526,-90.8070,-9999.0,0.15,1111122 
LUMCON,ioos:station:LUMCON:104:1,2011-05-07T14:00:00Z,29.5526,-90.8070,-9999.0,0.15,1111122 
LUMCON,ioos:station:LUMCON:104:1,2011-05-07T15:00:00Z,29.5526,-90.8070,-9999.0,0.15,1111122 
LUMCON,ioos:station:LUMCON:104:1,2011-05-07T16:00:00Z,29.5526,-90.8070,-9999.0,0.15,1111122 
LUMCON,ioos:station:LUMCON:104:1,2011-05-07T17:00:00Z,29.5526,-90.8070,-9999.0,0.15,1111122 
LUMCON,ioos:station:LUMCON:104:1,2011-05-07T18:00:00Z,29.5526,-90.8070,-9999.0,0.15,1111122 
LUMCON,ioos:station:LUMCON:104:1,2011-05-07T19:00:00Z,29.5526,-90.8070,-9999.0,0.15,1111122 
LUMCON,ioos:station:LUMCON:104:1,2011-05-07T20:00:00Z,29.5526,-90.8070,-9999.0,0.15,1111122 
LUMCON,ioos:station:LUMCON:104:1,2011-05-07T21:00:00Z,29.5526,-90.8070,-9999.0,0.15,1111122 
LUMCON,ioos:station:LUMCON:104:1,2011-05-07T22:00:00Z,29.5526,-90.8070,-9999.0,0.15,1111122 
LUMCON,ioos:station:LUMCON:104:1,2011-05-07T23:00:00Z,29.5526,-90.8070,-9999.0,0.15,1111122 
LUMCON,ioos:station:LUMCON:104:1,2011-05-08T01:00:00Z,29.5526,-90.8070,-9999.0,0.15,1111122 
LUMCON,ioos:station:LUMCON:104:1,2011-05-08T02:00:00Z,29.5526,-90.8070,-9999.0,0.15,1111122 
LUMCON,ioos:station:LUMCON:104:1,2011-05-08T03:00:00Z,29.5526,-90.8070,-9999.0,0.15,1111122 
LUMCON,ioos:station:LUMCON:104:1,2011-05-08T04:00:00Z,29.5526,-90.8070,-9999.0,0.15,1111122 
LUMCON,ioos:station:LUMCON:104:1,2011-05-08T05:00:00Z,29.5526,-90.8070,-9999.0,0.15,1111122 
LUMCON,ioos:station:LUMCON:104:1,2011-05-08T06:00:00Z,29.5526,-90.8070,-9999.0,0.15,1111122 
LUMCON,ioos:station:LUMCON:104:1,2011-05-08T07:00:00Z,29.5526,-90.8070,-9999.0,0.15,1111122 
LUMCON,ioos:station:LUMCON:104:1,2011-05-08T08:00:00Z,29.5526,-90.8070,-9999.0,0.15,1111122 
LUMCON,ioos:station:LUMCON:104:1,2011-05-08T09:00:00Z,29.5526,-90.8070,-9999.0,0.15,1111122 
LUMCON,ioos:station:LUMCON:104:1,2011-05-08T10:00:00Z,29.5526,-90.8070,-9999.0,0.15,1111122 
LUMCON,ioos:station:LUMCON:104:1,2011-05-08T11:00:00Z,29.5526,-90.8070,-9999.0,0.15,1111122 
LUMCON,ioos:station:LUMCON:104:1,2011-05-08T12:00:00Z,29.5526,-90.8070,-9999.0,0.15,1111122 
LUMCON,ioos:station:LUMCON:104:1,2011-05-08T13:00:00Z,29.5526,-90.8070,-9999.0,0.15,1111122 
LUMCON,ioos:station:LUMCON:104:1,2011-05-08T14:00:00Z,29.5526,-90.8070,-9999.0,0.15,1111122 
LUMCON,ioos:station:LUMCON:104:1,2011-05-08T15:00:00Z,29.5526,-90.8070,-9999.0,0.15,1111122 
LUMCON,ioos:station:LUMCON:104:1,2011-05-08T16:00:00Z,29.5526,-90.8070,-9999.0,0.15,1111122 
LUMCON,ioos:station:LUMCON:104:1,2011-05-08T17:00:00Z,29.5526,-90.8070,-9999.0,0.15,1111122 
LUMCON,ioos:station:LUMCON:104:1,2011-05-08T18:00:00Z,29.5526,-90.8070,-9999.0,0.15,1111122 
LUMCON,ioos:station:LUMCON:104:1,2011-05-08T19:00:00Z,29.5526,-90.8070,-9999.0,0.15,1111122 
LUMCON,ioos:station:LUMCON:104:1,2011-05-08T20:00:00Z,29.5526,-90.8070,-9999.0,0.15,1111122 
LUMCON,ioos:station:LUMCON:104:1,2011-05-08T21:00:00Z,29.5526,-90.8070,-9999.0,0.15,1111122 
LUMCON,ioos:station:LUMCON:104:1,2011-05-08T22:00:00Z,29.5526,-90.8070,-9999.0,0.15,1111122 
LUMCON,ioos:station:LUMCON:104:1,2011-05-08T23:00:00Z,29.5526,-90.8070,-9999.0,0.15,1111122 
LUMCON,ioos:station:LUMCON:104:1,2011-05-13T15:00:00Z,29.5526,-90.8070,0.0,0.14,1111122 
LUMCON,ioos:station:LUMCON:104:1,2011-05-13T17:00:00Z,29.5526,-90.8070,0.0,0.14,1111122 
LUMCON,ioos:station:LUMCON:104:1,2011-05-13T19:00:00Z,29.5526,-90.8070,0.0,0.14,1111122 
LUMCON,ioos:station:LUMCON:104:1,2011-05-13T20:00:00Z,29.5526,-90.8070,0.0,0.14,1111122 
LUMCON,ioos:station:LUMCON:104:1,2011-05-13T21:00:00Z,29.5526,-90.8070,0.0,0.14,1111122 
LUMCON,ioos:station:LUMCON:104:1,2011-05-14T01:00:00Z,29.5526,-90.8070,0.0,0.14,1111122 
LUMCON,ioos:station:LUMCON:104:1,2011-05-14T02:00:00Z,29.5526,-90.8070,0.0,0.14,1111122 
LUMCON,ioos:station:LUMCON:104:1,2011-05-14T03:00:00Z,29.5526,-90.8070,0.0,0.14,1111122 
LUMCON,ioos:station:LUMCON:104:1,2011-05-14T04:00:00Z,29.5526,-90.8070,0.0,0.14,1111122 
LUMCON,ioos:station:LUMCON:104:1,2011-05-16T05:00:00Z,29.5526,-90.8070,0.0,0.14,1111122 
LUMCON,ioos:station:LUMCON:104:1,2011-05-16T07:00:00Z,29.5526,-90.8070,0.0,0.14,1111122 
LUMCON,ioos:station:LUMCON:104:1,2011-05-16T09:00:00Z,29.5526,-90.8070,0.0,0.14,1111122 
LUMCON,ioos:station:LUMCON:104:1,2011-05-16T11:00:00Z,29.5526,-90.8070,0.0,0.14,1111122 
LUMCON,ioos:station:LUMCON:104:1,2011-05-16T14:00:00Z,29.5526,-90.8070,0.0,0.14,1111122 
LUMCON,ioos:station:LUMCON:104:1,2011-05-16T16:00:00Z,29.5526,-90.8070,0.0,0.14,1111122 
LUMCON,ioos:station:LUMCON:104:1,2011-05-16T18:00:00Z,29.5526,-90.8070,0.0,0.14,1111122 
LUMCON,ioos:station:LUMCON:104:1,2011-05-16T20:00:00Z,29.5526,-90.8070,0.0,0.14,1111122 
LUMCON,ioos:station:LUMCON:104:1,2011-05-16T21:00:00Z,29.5526,-90.8070,0.0,0.14,1111122 
LUMCON,ioos:station:LUMCON:104:1,2011-05-16T23:00:00Z,29.5526,-90.8070,0.0,0.14,1111122 
LUMCON,ioos:station:LUMCON:104:1,2011-05-17T15:00:00Z,29.5526,-90.8070,0.0,0.14,1111122 
LUMCON,ioos:station:LUMCON:104:1,2011-05-17T16:00:00Z,29.5526,-90.8070,0.0,0.14,1111122 
LUMCON,ioos:station:LUMCON:104:1,2011-05-17T20:00:00Z,29.5526,-90.8070,0.0,0.14,1111122 
LUMCON,ioos:station:LUMCON:104:1,2011-05-17T21:00:00Z,29.5526,-90.8070,0.0,0.14,1111122 
LUMCON,ioos:station:LUMCON:104:1,2011-05-17T22:00:00Z,29.5526,-90.8070,0.0,0.14,1111122 
LUMCON,ioos:station:LUMCON:104:1,2011-05-17T23:00:00Z,29.5526,-90.8070,0.0,0.14,1111122 
LUMCON,ioos:station:LUMCON:104:1,2011-05-18T05:00:00Z,29.5526,-90.8070,0.0,0.14,1111122 
LUMCON,ioos:station:LUMCON:104:1,2011-05-18T07:00:00Z,29.5526,-90.8070,0.0,0.14,1111122 
LUMCON,ioos:station:LUMCON:104:1,2011-05-18T09:00:00Z,29.5526,-90.8070,0.0,0.14,1111122 
LUMCON,ioos:station:LUMCON:104:1,2011-05-18T10:00:00Z,29.5526,-90.8070,0.0,0.14,1111122 
LUMCON,ioos:station:LUMCON:104:1,2011-05-18T11:00:00Z,29.5526,-90.8070,0.0,0.14,1111122 
LUMCON,ioos:station:LUMCON:104:1,2011-05-18T12:00:00Z,29.5526,-90.8070,0.0,0.14,1111122 
LUMCON,ioos:station:LUMCON:104:1,2011-05-18T13:00:00Z,29.5526,-90.8070,0.0,0.14,1111122 
LUMCON,ioos:station:LUMCON:104:1,2011-05-18T14:00:00Z,29.5526,-90.8070,0.0,0.14,1111122 
LUMCON,ioos:station:LUMCON:104:1,2011-05-18T18:00:00Z,29.5526,-90.8070,0.0,0.14,1111122 
LUMCON,ioos:station:LUMCON:104:1,2011-05-18T22:00:00Z,29.5526,-90.8070,0.0,0.14,1111122 
LUMCON,ioos:station:LUMCON:104:1,2011-05-19T01:00:00Z,29.5526,-90.8070,0.0,0.14,1111122 
LUMCON,ioos:station:LUMCON:104:1,2011-05-19T02:00:00Z,29.5526,-90.8070,0.0,0.14,1111122 
LUMCON,ioos:station:LUMCON:104:1,2011-05-19T03:00:00Z,29.5526,-90.8070,0.0,0.14,1111122 
LUMCON,ioos:station:LUMCON:104:1,2011-05-19T04:00:00Z,29.5526,-90.8070,0.0,0.14,1111122 
LUMCON,ioos:station:LUMCON:104:1,2011-05-19T06:00:00Z,29.5526,-90.8070,0.0,0.14,1111122 
LUMCON,ioos:station:LUMCON:104:1,2011-05-19T16:00:00Z,29.5526,-90.8070,0.0,0.14,1111122 
LUMCON,ioos:station:LUMCON:104:1,2011-05-19T17:00:00Z,29.5526,-90.8070,0.0,0.14,1111122 
LUMCON,ioos:station:LUMCON:104:1,2011-05-19T22:00:00Z,29.5526,-90.8070,0.0,0.14,1111122 
LUMCON,ioos:station:LUMCON:104:1,2011-05-19T23:00:00Z,29.5526,-90.8070,0.0,0.14,1111122 
LUMCON,ioos:station:LUMCON:104:1,2011-05-20T01:00:00Z,29.5526,-90.8070,0.0,0.14,1111122 
LUMCON,ioos:station:LUMCON:104:1,2011-05-20T02:00:00Z,29.5526,-90.8070,0.0,0.14,1111122 
LUMCON,ioos:station:LUMCON:104:1,2011-05-20T03:00:00Z,29.5526,-90.8070,0.0,0.14,1111122 
LUMCON,ioos:station:LUMCON:104:1,2011-05-20T04:00:00Z,29.5526,-90.8070,0.0,0.14,1111122 
LUMCON,ioos:station:LUMCON:104:1,2011-05-20T05:00:00Z,29.5526,-90.8070,0.0,0.14,1111122 
LUMCON,ioos:station:LUMCON:104:1,2011-05-20T07:00:00Z,29.5526,-90.8070,0.0,0.14,1111122 
LUMCON,ioos:station:LUMCON:104:1,2011-05-20T08:00:00Z,29.5526,-90.8070,0.0,0.14,1111122 
LUMCON,ioos:station:LUMCON:104:1,2011-05-20T09:00:00Z,29.5526,-90.8070,0.0,0.14,1111122 
LUMCON,ioos:station:LUMCON:104:1,2011-05-20T11:00:00Z,29.5526,-90.8070,0.0,0.14,1111122 
LUMCON,ioos:station:LUMCON:104:1,2011-05-20T13:00:00Z,29.5526,-90.8070,0.0,0.14,1111122 
LUMCON,ioos:station:LUMCON:104:1,2011-05-20T14:00:00Z,29.5526,-90.8070,0.0,0.14,1111122 
LUMCON,ioos:station:LUMCON:104:1,2011-05-20T16:00:00Z,29.5526,-90.8070,0.0,0.14,1111122 
LUMCON,ioos:station:LUMCON:104:1,2011-05-20T18:00:00Z,29.5526,-90.8070,0.0,0.14,1111122 
LUMCON,ioos:station:LUMCON:104:1,2011-05-20T20:00:00Z,29.5526,-90.8070,0.0,0.14,1111122 
LUMCON,ioos:station:LUMCON:104:1,2011-05-20T23:00:00Z,29.5526,-90.8070,0.0,0.14,1111122 
LUMCON,ioos:station:LUMCON:104:1,2011-05-21T01:00:00Z,29.5526,-90.8070,0.0,0.14,1111122 
LUMCON,ioos:station:LUMCON:104:1,2011-05-21T02:00:00Z,29.5526,-90.8070,0.0,0.14,1111122 
LUMCON,ioos:station:LUMCON:104:1,2011-05-21T03:00:00Z,29.5526,-90.8070,0.0,0.14,1111122 
LUMCON,ioos:station:LUMCON:104:1,2011-05-21T04:00:00Z,29.5526,-90.8070,0.0,0.14,1111122 
LUMCON,ioos:station:LUMCON:104:1,2011-05-21T05:00:00Z,29.5526,-90.8070,0.0,0.14,1111122 
LUMCON,ioos:station:LUMCON:104:1,2011-05-21T09:00:00Z,29.5526,-90.8070,0.0,0.14,1111122 
LUMCON,ioos:station:LUMCON:104:1,2011-05-21T10:00:00Z,29.5526,-90.8070,0.0,0.14,1111122 
LUMCON,ioos:station:LUMCON:104:1,2011-05-21T12:00:00Z,29.5526,-90.8070,0.0,0.14,1111122 
LUMCON,ioos:station:LUMCON:104:1,2011-05-21T13:00:00Z,29.5526,-90.8070,0.0,0.14,1111122 
LUMCON,ioos:station:LUMCON:104:1,2011-05-21T15:00:00Z,29.5526,-90.8070,0.0,0.14,1111122 
LUMCON,ioos:station:LUMCON:104:1,2011-05-21T16:00:00Z,29.5526,-90.8070,0.0,0.14,1111122 
LUMCON,ioos:station:LUMCON:104:1,2011-05-21T17:00:00Z,29.5526,-90.8070,0.0,0.14,1111122 
LUMCON,ioos:station:LUMCON:104:1,2011-05-22T01:00:00Z,29.5526,-90.8070,0.0,0.14,1111122 
LUMCON,ioos:station:LUMCON:104:1,2011-05-22T02:00:00Z,29.5526,-90.8070,0.0,0.14,1111122 
LUMCON,ioos:station:LUMCON:104:1,2011-05-22T03:00:00Z,29.5526,-90.8070,0.0,0.14,1111122 
LUMCON,ioos:station:LUMCON:104:1,2011-05-22T04:00:00Z,29.5526,-90.8070,0.0,0.14,1111122 
LUMCON,ioos:station:LUMCON:104:1,2011-05-22T05:00:00Z,29.5526,-90.8070,0.0,0.14,1111122 